Hourly Data Report for October 05, 2017

All times are specified in Local Standard Time (LST). Add 1 hour to adjust for Daylight Saving Time where and when it is observed.

SECHELT AUT
BRITISH COLUMBIA

49°27'28.788" N
123°42'54.945" W
86.20 m
1047172
71638
VOU

Download Data

Hourly Data (October 2017)
Hourly Data Report for October 5, 2017
Temp Definition
°C
Dew Point Temp Definition
°C
Rel Hum Definition
%
Wind Dir Definition
10's deg

Wind Spd Definition
km/h
Visibility Definition
km
Stn Press Definition
kPa
Hmdx Definition


Wind Chill Definition


Weather Definition


TIME
00:00 6.4 3.7 83 34 3   101.14     LegendNANA
01:00 6.6 2.7 76 33 6   101.16     LegendNANA
02:00 6.6 3.8 82 36 2   101.16     LegendNANA
03:00 5.6 3.0 84 34 3   101.19     LegendNANA
04:00 5.2 3.3 87 34 3   101.20     LegendNANA
05:00 4.4 2.3 86   0   101.19     LegendNANA
06:00 4.8 2.9 87 34 4   101.21     LegendNANA
07:00 5.5 3.3 86 1 2   101.24     LegendNANA
08:00 9.2 6.6 84   0   101.25     LegendNANA
09:00 13.7 8.0 69 19 1   101.26     LegendNANA
10:00 15.5 8.0 61 17 2   101.27     LegendNANA
11:00 16.1 8.9 62 24 3   101.23     LegendNANA
12:00 15.3 7.7 61 17 4   101.19     LegendNANA
13:00 15.7 7.7 59 20 3   101.14     LegendNANA
14:00 16.9 5.3 46 19 4   101.07     LegendNANA
15:00 16.7 5.8 49 17 5   101.03     LegendNANA
16:00 17.5 5.2 44 21 1   101.01     LegendNANA
17:00 14.1 6.1 59 0 1   100.98     LegendNANA
18:00 10.8 6.0 72   0   100.95     LegendNANA
19:00 8.5 5.4 81 34 1   100.97     LegendNANA
20:00 7.9 5.9 87 33 4   100.96     LegendNANA
21:00 6.4 4.4 87 0 1   100.96     LegendNANA
22:00 6.5 4.5 87 34 4   100.97     LegendNANA
23:00 6.0 4.1 88 34 2   100.94     LegendNANA

Notes on Data Quality.

Legend

  • E = Estimated
  • M = Missing
  • NA = Not Available
  • ‡ = Partner data that is not subject to review by the National Climate Archives
Date modified: